Home > Weather > Nouakchott > Past weeks

Flag for Mauritania Weather for the Past 2 Weeks in Nouakchott, Mauritania

Now
73 °F

Low level haze.


Feels Like: 75 °F
Forecast: 70 / 89 °F
Wind: 10 mph from Northeast

Location: Nouakchott Airport

Current Time: Feb 10, 2016 at 7:57:20 AM

Latest Report: Feb 10, 2016 at 7:30 AM


Visibility: 2 mi

Pressure: 30.04 "Hg

Humidity: 17%

Dew point: 27 °F

Location of NouakchottLocation

Historic Weather in Nouakchott — Graph

°F

Nouakchott Temperature Yesterday

Maximum temperature yesterday: 91 °F (at 2:00 PM)
Minimum temperature yesterday: 75 °F (at 6:00 AM)
Average temperature yesterday: 83 °F

High & Low Weather Summary for the Past Weeks

 TemperatureHumidityPressure
High99 °F (Feb 7, 4:00 PM)42% (Jan 27, 8:30 PM)30.15 "Hg (Jan 27, 8:30 PM)
Low61 °F (Jan 27, 7:30 AM)6% (Feb 4, 3:00 PM)29.89 "Hg (Feb 3, 3:30 PM)
Average79 °F14%30.02 "Hg
* Reported Jan 26 6:00 AM — Feb 10 6:30 AM, Nouakchott, Weather by CustomWeather, © 2016

Note: Actual official high and low records may vary slightly from our data, if they occured in-between our weather recording intervals... More about our weather records

Advertising

Nouakchott Weather History for the Previous 24 Hours

 ConditionsComfort  
Time TempWeatherWind HumidityBarometerVisibility
6:30 AM
Wed, Feb 10
75 °FLow level haze.12 mph16%30.04 "Hg2 mi
6:00 AM75 °FLow level haze.12 mph15%30.04 "Hg2 mi
5:30 AM75 °FLow level haze.13 mph16%30.01 "Hg2 mi
5:00 AM75 °FLow level haze.10 mph16%30.04 "Hg2 mi
4:30 AM75 °FLow level haze.12 mph15%30.04 "Hg2 mi
4:00 AM75 °FLow level haze.10 mph15%30.04 "Hg2 mi
3:30 AM75 °FLow level haze.10 mph15%30.04 "Hg2 mi
3:00 AM77 °FLow level haze.10 mph13%30.07 "Hg2 mi
2:30 AM77 °FLow level haze.10 mph13%30.07 "Hg2 mi
2:00 AM77 °FLow level haze.9 mph13%30.07 "Hg2 mi
1:30 AM77 °FLow level haze.8 mph13%30.09 "Hg2 mi
1:00 AM77 °FLow level haze.8 mph13%30.09 "Hg2 mi
12:00 AM79 °FLow level haze.9 mph12%30.09 "Hg2 mi
11:30 PM
Tue, Feb 9
81 °FLow level haze.9 mph11%30.09 "Hg2 mi
11:00 PM81 °FLow level haze.9 mph11%30.09 "Hg2 mi
10:30 PM82 °FLow level haze.8 mph11%30.09 "Hg2 mi
9:30 PM82 °FLow level haze.9 mph11%30.09 "Hg2 mi
9:00 PM82 °FLow level haze.8 mph10%30.07 "Hg3 mi
8:30 PM84 °FLow level haze.8 mph9%30.07 "Hg3 mi
8:00 PM86 °FSandstorm.10 mph9%30.04 "Hg1 mi
7:30 PM88 °FSandstorm.14 mph8%30.04 "Hg1 mi
7:00 PM88 °FSandstorm.16 mph8%30.04 "Hg1 mi
6:30 PM90 °FSandstorm.18 mph7%30.04 "Hg1 mi
6:00 PM90 °FSandstorm.18 mph7%30.04 "Hg1 mi
5:30 PM91 °FSandstorm.20 mph7%30.04 "Hg1 mi
5:00 PM91 °FSandstorm.22 mph7%30.01 "Hg1 mi
4:30 PM91 °FSandstorm.21 mph7%30.04 "Hg1 mi
4:00 PM91 °FSandstorm.21 mph7%30.04 "Hg1 mi
3:30 PM90 °FSandstorm.17 mph8%30.04 "Hg1 mi
3:00 PM90 °FSandstorm.18 mph8%30.07 "Hg1 mi
2:30 PM91 °FSandstorm.22 mph8%30.07 "Hg1 mi
2:00 PM91 °FSandstorm.17 mph8%30.09 "Hg1 mi
1:00 PM88 °FSandstorm.22 mph9%30.12 "Hg1 mi
12:30 PM88 °FSandstorm.23 mph9%30.12 "Hg1 mi
12:00 PM86 °FSandstorm.22 mph9%30.12 "Hg2 mi
11:30 AM86 °FSandstorm.25 mph10%30.15 "Hg2 mi
10:30 AM84 °FSandstorm.22 mph10%30.15 "Hg2 mi
10:00 AM81 °FSandstorm.17 mph11%30.15 "Hg2 mi
9:30 AM79 °FLow level haze.16 mph12%30.15 "Hg2 mi
9:00 AM77 °FLow level haze.15 mph13%30.12 "Hg2 mi
8:00 AM75 °FLow level haze.14 mph14%30.12 "Hg2 mi
7:30 AM75 °FLow level haze.10 mph14%30.09 "Hg3 mi
7:00 AM75 °FClear.13 mph14%30.09 "Hg4 mi
Weather by CustomWeather, © 2016

See weather overviewHow to use our weather pages